Showing default

RESURS O1, 23342

Orbit data source: Space-Track

RESURS O1, 23342 is a payload satellite owned by Priroda (CIS) in SSO that was launched on Fri, 04 Nov 1994 UTC via a ZENIT-2 launch vehicle from the Tyuratam Missile And Space Complex (TTMTR). Payload-class satellites include a variety of spacecraft equipped with specific instruments for various scientific and technological missions. These include communications satellites like Starlink; space stations such as the ISS; scientific satellites like the Hubble; Earth observation satellites from companies like Planet Labs, Umbra, and HawkEye 360; GPS; miniature CubeSats for education and research; and military/defense satellites.

Loading next visibility...
Identifier
23342, 1994-074A
Orbit
SSO
Country
Flag of CISCIS
Related business
Manufacturer
VNIIEM
Mission
Civil Imaging
Bus & Motor
RESURS-O, Unknown motor
Mass
1,900 kg wet, 1,900 kg dry
Launch date (UTC)
1994-11-04 (31 years ago)
Launch vehicle
ZENIT-2
Launch site
Tyuratam Missile And Space Complex (TTMTR)
Object type
Payload
Rocket body
Debris
Shape & HBR
Cyl + 2 Pan, 5.8 m
Radar Cross Section
11.656 m², Large (>1 m²)

Expand to show TLE details & history
Last TLE update: 11 hours ago

TLE from 11 hours ago
0 RESURS O1
1 23342U 94074A   25291.22575397  .00001247  00000-0  15373-3 0  9993
2 23342  97.6834 313.6949 0001901 108.2105 251.9317 14.84599668668026
Epoch: 2025-10-18T05:25Z
TLE epoch observation values (Epoch: 2025-10-18T05:25:05.143Z)
Latitude
-0°
Longitude
-154.53635°
Altitude
618.289 km
Speed
7.55 km/s
True Right ascension
20h 54m 46s
True Declination
0° 00' 00"
Sunlit
Object was in daylight at epoch
Visualization orbit readout
Latitude
Unknown
Longitude
Unknown
Altitude
Unknown
Speed
Unknown
Apparent Right ascension
Unknown
Apparent Declination
Unknown
Sunlit
N/A
Visualization observer readout
Local Sidereal Time
11:00:50
Azimuth
Unknown
Elevation
Unknown
Doppler factor
Unknown
Orbital elements
Apogee altitude
613.197 km
Perigee altitude
610.539 km
Semi-major axis
6,990.005 km
Eccentricity
0.00019
Inclination
97.6834°
RAAN
313.6949°
Arg. of periapsis
108.2105°
True anomaly
251.91099°
Mean anomaly
251.9317°
Eccentric anomaly
251.92135°
Mean motion
3.71387 °/min
Orbital period
96.93 mins
BSTAR
0.00015373
Loading maneuver chart data...
Computing Atmospheric mass density...

Documentation

Showing up to 5 results
|